• In Hungary
  • List of Countries
  • For 7 days
  • Water Temperature
  • Satellite Maps
  • Weather Map
  • News
  • Weather Widgets
  • user-avatar
    Login

    Hourly Weather Kedabek

    Today, 19 August, Sunday

    Time Temperature Precipitation Wind Pressure Humidity
    00:00 +16°C° 0.7 mm 2 mps 617 mmHg 76%
    01:00 +15°C° 0.5 mm 2 mps 618 mmHg 78%
    02:00 +15°C° 0.5 mm 2 mps 618 mmHg 79%
    03:00 +15°C° 0.5 mm 2 mps 618 mmHg 81%
    04:00 +15°C° 0.3 mm 2 mps 618 mmHg 82%
    05:00 +15°C° 0.3 mm 2 mps 618 mmHg 82%
    06:00 +15°C° 0.3 mm 1 mps 618 mmHg 83%
    07:00 +15°C° 0.4 mm 2 mps 618 mmHg 80%
    08:00 +16°C° 0.4 mm 2 mps 618 mmHg 76%
    09:00 +17°C° 0.4 mm 2 mps 619 mmHg 73%
    10:00 +17°C° 0.5 mm 2 mps 619 mmHg 70%
    11:00 +18°C° 0.5 mm 2 mps 619 mmHg 66%
    12:00 +19°C° 0.5 mm 2 mps 619 mmHg 63%
    13:00 +20°C° 0.4 mm 2 mps 619 mmHg 60%
    14:00 +20°C° 0.4 mm 3 mps 619 mmHg 58%
    15:00 +21°C° 0.4 mm 3 mps 619 mmHg 55%
    16:00 +20°C° 0.4 mm 3 mps 619 mmHg 58%
    17:00 +20°C° 0.4 mm 3 mps 619 mmHg 60%
    18:00 +19°C° 0.4 mm 3 mps 619 mmHg 62%
    19:00 +18°C° 0.7 mm 3 mps 619 mmHg 66%
    20:00 +17°C° 0.7 mm 3 mps 619 mmHg 70%
    21:00 +16°C° 0.7 mm 2 mps 619 mmHg 74%
    22:00 +16°C° 0.4 mm 2 mps 620 mmHg 74%
    23:00 +15°C° 0.4 mm 2 mps 620 mmHg 74%

    Tomorrow, 20 August, Monday

    Time Temperature Precipitation Wind Pressure Humidity
    00:00 +15°C° 0.4 mm 2 mps 620 mmHg 75%
    01:00 +15°C° 0.2 mm 2 mps 620 mmHg 75%
    02:00 +14°C° 0.2 mm 2 mps 620 mmHg 75%
    03:00 +14°C° 0.2 mm 2 mps 620 mmHg 76%
    04:00 +14°C° 0 mm 2 mps 620 mmHg 76%
    05:00 +14°C° 0 mm 2 mps 620 mmHg 77%
    06:00 +14°C° 0 mm 2 mps 620 mmHg 77%
    07:00 +15°C° 0 mm 2 mps 621 mmHg 73%
    08:00 +16°C° 0 mm 3 mps 622 mmHg 70%
    09:00 +17°C° 0 mm 3 mps 622 mmHg 66%
    10:00 +17°C° 0.1 mm 3 mps 622 mmHg 64%
    11:00 +17°C° 0.1 mm 3 mps 622 mmHg 63%
    12:00 +18°C° 0.1 mm 3 mps 623 mmHg 62%
    13:00 +19°C° 0.2 mm 4 mps 623 mmHg 59%
    14:00 +19°C° 0.2 mm 4 mps 623 mmHg 56%
    15:00 +20°C° 0.2 mm 4 mps 623 mmHg 54%
    16:00 +19°C° 0.1 mm 4 mps 622 mmHg 56%
    17:00 +19°C° 0.1 mm 4 mps 622 mmHg 58%
    18:00 +18°C° 0.1 mm 3 mps 622 mmHg 60%
    19:00 +17°C° 0 mm 3 mps 622 mmHg 64%
    20:00 +16°C° 0 mm 3 mps 622 mmHg 68%
    21:00 +14°C° 0 mm 2 mps 622 mmHg 72%
    22:00 +14°C° 0 mm 2 mps 622 mmHg 73%
    23:00 +13°C° 0 mm 2 mps 622 mmHg 75%

    Day after tomorrow, 21 August, Tuesday

    Time Temperature Precipitation Wind Pressure Humidity
    00:00 +13°C° 0 mm 2 mps 621 mmHg 77%
    01:00 +12°C° 0 mm 2 mps 621 mmHg 78%
    02:00 +12°C° 0 mm 1 mps 621 mmHg 80%
    03:00 +12°C° 0 mm 1 mps 621 mmHg 81%
    04:00 +12°C° 0 mm 1 mps 621 mmHg 81%
    05:00 +12°C° 0 mm 1 mps 621 mmHg 81%
    06:00 +12°C° 0 mm 1 mps 621 mmHg 81%
    07:00 +14°C° 0 mm 1 mps 621 mmHg 74%
    08:00 +15°C° 0 mm 1 mps 622 mmHg 67%
    09:00 +17°C° 0 mm 2 mps 622 mmHg 61%
    10:00 +18°C° 0 mm 2 mps 622 mmHg 57%
    11:00 +20°C° 0 mm 2 mps 622 mmHg 53%
    12:00 +21°C° 0 mm 3 mps 622 mmHg 49%
    13:00 +21°C° 0 mm 3 mps 622 mmHg 48%
    14:00 +22°C° 0 mm 3 mps 622 mmHg 48%
    15:00 +22°C° 0 mm 3 mps 621 mmHg 47%
    16:00 +21°C° 0.1 mm 3 mps 621 mmHg 51%
    17:00 +21°C° 0.1 mm 3 mps 621 mmHg 54%
    18:00 +20°C° 0.1 mm 2 mps 621 mmHg 58%
    19:00 +18°C° 0 mm 2 mps 621 mmHg 62%
    20:00 +17°C° 0 mm 2 mps 621 mmHg 66%
    21:00 +16°C° 0 mm 1 mps 621 mmHg 70%
    22:00 +15°C° 0 mm 1 mps 621 mmHg 71%
    23:00 +15°C° 0 mm 1 mps 621 mmHg 72%

    22 August, Wednesday

    Time Temperature Precipitation Wind Pressure Humidity
    00:00 +14°C° 0 mm 1 mps 620 mmHg 73%
    01:00 +14°C° 0 mm 1 mps 620 mmHg 74%
    02:00 +14°C° 0 mm 1 mps 620 mmHg 75%
    03:00 +13°C° 0 mm 1 mps 620 mmHg 76%
    04:00 +13°C° 0 mm 1 mps 620 mmHg 75%
    05:00 +14°C° 0 mm 1 mps 620 mmHg 75%
    06:00 +14°C° 0 mm 1 mps 620 mmHg 74%
    07:00 +16°C° 0 mm 1 mps 621 mmHg 68%
    08:00 +17°C° 0 mm 2 mps 622 mmHg 61%
    09:00 +19°C° 0 mm 2 mps 622 mmHg 55%
    10:00 +21°C° 0 mm 2 mps 622 mmHg 51%
    11:00 +23°C° 0 mm 2 mps 622 mmHg 48%
    12:00 +24°C° 0 mm 3 mps 623 mmHg 45%
    13:00 +24°C° 0 mm 3 mps 622 mmHg 44%
    14:00 +25°C° 0 mm 3 mps 622 mmHg 44%
    15:00 +25°C° 0 mm 3 mps 622 mmHg 43%
    16:00 +24°C° 0 mm 3 mps 622 mmHg 46%
    17:00 +22°C° 0 mm 3 mps 622 mmHg 48%
    18:00 +21°C° 0 mm 3 mps 622 mmHg 51%
    19:00 +20°C° 0 mm 2 mps 622 mmHg 54%
    20:00 +18°C° 0 mm 2 mps 622 mmHg 58%
    21:00 +18°C° 0 mm 1 mps 622 mmHg 61%
    22:00 +16°C° 0 mm 1 mps 622 mmHg 62%
    23:00 +16°C° 0 mm 1 mps 621 mmHg 63%

    23 August, Thursday

    Time Temperature Precipitation Wind Pressure Humidity
    00:00 +15°C° 0 mm 1 mps 621 mmHg 64%
    01:00 +15°C° 0 mm 1 mps 621 mmHg 65%
    02:00 +14°C° 0 mm 1 mps 621 mmHg 66%
    03:00 +14°C° 0 mm 1 mps 621 mmHg 68%
    04:00 +14°C° 0 mm 1 mps 621 mmHg 68%
    05:00 +14°C° 0 mm 1 mps 621 mmHg 68%
    06:00 +14°C° 0 mm 1 mps 621 mmHg 68%
    07:00 +16°C° 0 mm 1 mps 622 mmHg 62%
    08:00 +18°C° 0 mm 2 mps 623 mmHg 55%
    09:00 +19°C° 0 mm 2 mps 623 mmHg 49%
    10:00 +21°C° 0 mm 2 mps 623 mmHg 46%
    11:00 +22°C° 0 mm 3 mps 623 mmHg 44%
    12:00 +24°C° 0 mm 3 mps 623 mmHg 41%
    13:00 +23°C° 0 mm 4 mps 623 mmHg 41%
    14:00 +25°C° 0 mm 4 mps 623 mmHg 40%
    15:00 +25°C° 0 mm 4 mps 623 mmHg 40%
    16:00 +23°C° 0 mm 4 mps 623 mmHg 43%
    17:00 +22°C° 0 mm 4 mps 623 mmHg 45%
    18:00 +21°C° 0 mm 3 mps 623 mmHg 48%
    19:00 +20°C° 0 mm 3 mps 622 mmHg 52%
    20:00 +18°C° 0 mm 3 mps 622 mmHg 55%
    21:00 +17°C° 0 mm 3 mps 622 mmHg 59%
    22:00 +16°C° 0 mm 2 mps 622 mmHg 60%
    23:00 +16°C° 0 mm 2 mps 622 mmHg 61%

    24 August, Friday

    Time Temperature Precipitation Wind Pressure Humidity
    00:00 +15°C° 0 mm 2 mps 622 mmHg 62%
    01:00 +15°C° 0 mm 2 mps 622 mmHg 63%
    02:00 +14°C° 0 mm 1 mps 622 mmHg 64%
    03:00 +14°C° 0 mm 1 mps 621 mmHg 65%
    04:00 +14°C° 0 mm 1 mps 622 mmHg 65%
    05:00 +14°C° 0 mm 1 mps 622 mmHg 65%
    06:00 +14°C° 0 mm 1 mps 622 mmHg 65%
    07:00 +16°C° 0 mm 2 mps 622 mmHg 59%
    08:00 +17°C° 0 mm 2 mps 623 mmHg 52%
    09:00 +19°C° 0 mm 2 mps 623 mmHg 45%
    10:00 +21°C° 0 mm 3 mps 623 mmHg 42%
    11:00 +22°C° 0 mm 3 mps 624 mmHg 40%
    12:00 +24°C° 0 mm 3 mps 624 mmHg 37%
    13:00 +25°C° 0 mm 4 mps 623 mmHg 36%
    14:00 +25°C° 0 mm 4 mps 623 mmHg 36%
    15:00 +25°C° 0 mm 4 mps 623 mmHg 35%
    16:00 +23°C° 0 mm 4 mps 623 mmHg 39%
    17:00 +22°C° 0 mm 4 mps 622 mmHg 43%
    18:00 +21°C° 0 mm 3 mps 622 mmHg 47%
    19:00 +19°C° 0 mm 3 mps 622 mmHg 51%
    20:00 +18°C° 0 mm 3 mps 622 mmHg 55%
    21:00 +16°C° 0 mm 2 mps 622 mmHg 59%
    22:00 +16°C° 0 mm 2 mps 622 mmHg 60%
    23:00 +15°C° 0 mm 2 mps 622 mmHg 61%
    Show more